Weather History for Burlington, IA

Change the Weather History Date:

Wednesday, March 19, 2014

  Actual Average Record
Temperature  
Mean Temperature 39 °F 43 °F  
Max Temperature 48 °F 53 °F 81 °F (2012)
Min Temperature 30 °F 33 °F -5 °F (1923)
Degree Days  
Heating Degree Days 26 22  
Month to date heating degree days 652 496  
Since 1 July heating degree days 5975 4874  
Cooling Degree Days 0 0  
Month to date cooling degree days 0 0  
Year to date cooling degree days 0 0  
Moisture  
Dew Point 32 °F    
Average Humidity 78    
Maximum Humidity 92    
Minimum Humidity 64    
Precipitation  
Precipitation T in 0.09 in 0.24 in (2003)
Month to date precipitation 0.83 1.66  
Year to date precipitation 5.20 4.52  
Sea Level Pressure  
Sea Level Pressure 29.86 in    
Wind  
Wind Speed 13 mph (WNW)    
Max Wind Speed 24 mph    
Max Gust Speed 31 mph    
Visibility 8 miles    
Events Rain    
T = Trace of Precipitation, MM = Missing Value Source: NWS Daily Summary

Daily Weather History Graph

Daily Weather History Graph

Search for Another Location

Airport:

Trip Planner

Search our weather history database for the weather conditions in past years. The results will help you decide how hot, cold, wet, or windy it might be!

Date:

Astronomy

Mar. 19, 2014 Rise Set
Actual Time 7:09 AM CDT 7:15 PM CDT
Civil Twilight 6:42 AM CDT 7:42 PM CDT
Nautical Twilight 6:10 AM CDT 8:14 PM CDT
Astronomical Twilight 5:37 AM CDT 8:47 PM CDT
Moon 10:35 PM CDT (3/19) 8:34 AM CDT (3/19)
Length of Visible Light 13h 00m
Length of Day
12h 06m
Waning Gibbous, 91% of the Moon is Illuminated
Mar 19
Waning Gibbous
Mar 23
Last Quarter
Mar 30
New
Apr 7
First Quarter
Apr 15
Full

Hourly Weather History & Observations

Time (CDT) Temp. Windchill Dew Point Humidity Pressure Visibility Wind Dir Wind Speed Gust Speed Precip Events Conditions
12:53 AM 48.0 °F - 39.0 °F 71% 29.56 in 10.0 mi South 8.1 mph - N/A   Overcast
1:53 AM 46.9 °F - 39.0 °F 74% 29.55 in 10.0 mi South 9.2 mph - N/A   Overcast
2:53 AM 46.9 °F - 39.0 °F 74% 29.54 in 10.0 mi South 6.9 mph - N/A   Overcast
3:53 AM 45.0 °F 40.6 °F 39.0 °F 80% 29.55 in 10.0 mi WSW 8.1 mph - 0.00 in Rain Light Rain
4:53 AM 45.0 °F 37.9 °F 41.0 °F 86% 29.56 in 8.0 mi NW 16.1 mph 25.3 mph 0.00 in   Overcast
5:37 AM 43.0 °F 36.8 °F 41.0 °F 93% 29.60 in 5.0 mi WNW 11.5 mph - N/A   Mostly Cloudy
5:53 AM 42.1 °F 33.9 °F 39.9 °F 92% 29.62 in 4.0 mi NW 17.3 mph 27.6 mph N/A   Overcast
6:53 AM 39.9 °F 31.4 °F 37.9 °F 93% 29.68 in 4.0 mi WNW 16.1 mph 21.9 mph N/A   Overcast
7:53 AM 39.0 °F 30.3 °F 36.0 °F 89% 29.74 in 3.0 mi WNW 16.1 mph 23.0 mph N/A   Overcast
8:12 AM 37.9 °F 29.2 °F 35.1 °F 89% 29.74 in 2.5 mi WNW 15.0 mph 31.1 mph N/A   Overcast
8:53 AM 37.0 °F 27.4 °F 34.0 °F 89% 29.78 in 2.5 mi NW 17.3 mph 25.3 mph N/A   Overcast
9:07 AM 37.0 °F 27.4 °F 34.0 °F 89% 29.78 in 3.0 mi NW 17.3 mph 28.8 mph N/A   Overcast
9:53 AM 37.9 °F 28.9 °F 33.1 °F 83% 29.83 in 4.0 mi NW 16.1 mph 28.8 mph N/A   Haze
10:53 AM 37.0 °F 26.4 °F 32.0 °F 82% 29.88 in 5.0 mi WNW 20.7 mph 27.6 mph N/A   Haze
11:53 AM 36.0 °F 25.6 °F 30.9 °F 82% 29.91 in 5.0 mi WNW 18.4 mph 29.9 mph N/A   Haze
12:21 PM 36.0 °F 26.3 °F 30.0 °F 79% 29.92 in 5.0 mi WNW 16.1 mph 26.5 mph N/A   Haze
12:53 PM 36.0 °F 25.3 °F 28.9 °F 76% 29.95 in 6.0 mi WNW 19.6 mph 25.3 mph N/A   Haze
1:53 PM 37.0 °F 27.4 °F 28.9 °F 73% 29.96 in 8.0 mi WNW 17.3 mph 27.6 mph N/A   Overcast
2:53 PM 37.0 °F 28.5 °F 28.0 °F 70% 29.99 in 10.0 mi NW 13.8 mph 29.9 mph N/A   Overcast
3:53 PM 37.9 °F 28.5 °F 28.0 °F 68% 30.01 in 10.0 mi WNW 17.3 mph 26.5 mph N/A   Overcast
4:31 PM 37.9 °F 27.3 °F 28.0 °F 68% 30.01 in 10.0 mi WNW 21.9 mph 26.5 mph N/A   Overcast
4:53 PM 37.9 °F 28.5 °F 27.0 °F 65% 30.03 in 10.0 mi WNW 17.3 mph 27.6 mph N/A   Overcast
5:01 PM 37.9 °F 28.2 °F 27.0 °F 65% 30.02 in 10.0 mi WNW 18.4 mph 27.6 mph N/A   Overcast
5:29 PM 37.9 °F 29.2 °F 27.0 °F 65% 30.02 in 10.0 mi WNW 15.0 mph 24.2 mph N/A   Overcast
5:53 PM 37.9 °F 28.9 °F 27.0 °F 65% 30.05 in 10.0 mi WNW 16.1 mph 25.3 mph N/A   Overcast
6:53 PM 37.9 °F 30.5 °F 27.0 °F 65% 30.07 in 10.0 mi WNW 11.5 mph 19.6 mph N/A   Overcast
7:53 PM 37.9 °F 30.9 °F 27.0 °F 65% 30.09 in 10.0 mi WNW 10.4 mph - N/A   Overcast
8:53 PM 36.0 °F 31.1 °F 26.1 °F 67% 30.09 in 10.0 mi West 5.8 mph - N/A   Clear
9:53 PM 34.0 °F 29.8 °F 26.1 °F 73% 30.09 in 10.0 mi WSW 4.6 mph - N/A   Clear
10:53 PM 30.9 °F 24.3 °F 26.1 °F 82% 30.09 in 10.0 mi SW 6.9 mph - N/A   Clear
11:53 PM 30.0 °F 24.1 °F 26.1 °F 85% 30.08 in 10.0 mi SSW 5.8 mph - N/A   Clear